GFSFLT1_850_rhum_336.txt.gz
RH
55 57 55 54 54 63 64 40 59 46 52 57 77 73 72 70 68 64 66 68 67 69 69 74 80 77 74 72 75 68 69 64
57 62 66 66 61 56 65 77 77 61 78 73 69 70 67 68 67 67 73 66 66 70 67 67 79 78 73 72 74 76 72 69
59 67 70 63 72 77 78 82 86 79 74 74 76 73 71 68 68 71 66 71 72 70 70 65 64 64 70 76 76 70 63 64
60 65 60 72 83 87 89 85 83 82 76 74 74 77 69 64 50 45 48 62 69 71 70 71 70 71 66 70 74 74 69 57
59 65 50 74 85 87 85 82 78 75 72 74 71 68 56 47 52 54 58 65 67 70 68 70 72 72 72 71 71 70 69 65
68 73 72 73 77 79 79 76 71 66 70 68 60 56 50 50 54 56 59 64 69 68 70 70 72 72 73 76 74 74 70 69
69 71 69 69 69 71 70 66 55 49 54 57 60 62 62 57 54 56 54 53 56 56 62 72 73 69 72 74 77 78 74 71
60 60 59 63 65 63 57 48 44 46 49 53 54 54 54 53 49 44 46 47 49 52 59 68 74 76 75 73 74 76 78 77
60 64 64 60 61 56 55 51 46 45 46 47 46 46 42 41 40 42 48 49 52 60 70 79 87 87 83 87 85 82 84 90
61 64 64 62 60 57 59 54 49 44 40 40 43 41 43 47 51 58 59 66 67 73 84 92 96 99 97 96 94 94 96 97
61 62 62 60 56 53 53 52 45 41 40 41 37 44 48 57 66 69 77 88 96 97 95 94 95 95 96 97 97 97 97 95
61 62 59 51 46 43 44 43 40 38 38 36 42 51 60 68 84 97 96 96 96 96 96 95 97 97 97 98 98 97 97 96
62 59 53 43 38 38 34 35 33 32 34 39 47 52 65 84 96 96 96 97 98 100 97 99 99 95 96 95 96 95 96 97
56 52 43 37 36 32 29 26 29 33 36 40 46 60 74 96 98 99 100 97 100 100 99 99 99 98 100 99 97 98 97 95
51 43 35 35 32 28 23 27 31 37 43 46 53 68 96 97 99 100 100 100 100 99 99 99 97 97 98 100 99 100 96 95
43 34 32 32 30 27 27 31 37 44 48 54 60 97 97 99 97 98 100 100 100 100 99 99 99 97 96 96 99 97 97 98
35 30 31 30 32 31 34 39 42 45 56 63 90 96 98 92 94 100 99 99 100 100 97 98 100 98 96 96 96 96 95 96
31 32 31 31 34 34 37 40 39 52 65 77 99 95 95 96 99 100 98 98 94 95 99 98 99 97 96 96 96 97 94 95
33 34 32 34 33 31 39 38 41 49 64 91 96 91 99 99 100 99 99 94 98 93 99 96 98 98 96 95 96 96 95 97

GFSFLT1_850_rhum_339.txt.gz
RH
46 42 40 40 43 53 58 64 70 76 75 80 77 74 73 70 68 66 67 68 70 74 68 68 71 68 67 67 68 66 64 61
48 47 51 50 68 65 67 73 75 78 77 76 71 68 66 66 66 66 68 68 73 72 64 63 65 68 70 68 69 70 69 66
50 55 62 83 67 66 79 75 76 85 81 72 70 73 72 73 76 73 70 70 68 72 72 68 63 59 63 72 73 68 63 63
52 57 77 78 69 85 84 84 81 80 78 77 77 74 78 71 58 50 44 48 52 61 70 72 69 66 63 64 69 71 67 62
53 62 64 70 75 78 77 74 74 74 74 76 76 73 64 52 48 46 48 52 57 61 66 69 71 70 68 67 67 67 68 64
55 59 62 65 64 64 71 71 69 65 63 59 56 55 52 51 50 51 51 53 55 59 63 69 70 72 71 70 68 68 66 65
56 57 56 56 58 62 61 57 46 42 43 47 51 54 55 53 50 52 49 46 47 48 52 58 63 70 73 72 72 74 72 66
49 51 53 53 53 52 50 45 42 40 41 44 45 46 48 48 46 42 42 41 40 41 45 49 57 62 69 72 72 73 74 74
49 50 51 49 47 50 50 49 45 42 41 40 42 44 45 44 43 48 52 54 55 55 60 64 67 65 68 74 77 76 75 78
44 46 47 49 47 46 47 46 43 40 40 41 43 43 44 51 56 63 68 80 86 87 90 90 92 94 86 91 93 97 89 95
43 44 46 44 40 39 40 41 37 37 38 39 39 44 51 58 66 80 94 97 96 96 96 96 97 96 98 93 87 82 82 95
44 44 43 36 34 34 34 34 34 34 37 40 44 50 57 74 92 97 96 94 96 99 100 99 95 98 98 96 96 97 94 93
43 40 34 30 30 30 29 29 31 35 39 46 51 60 81 93 99 100 100 100 100 100 100 98 95 96 94 96 97 99 97 97
37 33 29 30 28 29 28 29 35 41 45 52 83 96 95 99 100 100 99 98 97 98 98 95 97 97 96 98 99 97 98 97
29 26 27 28 28 30 31 35 42 44 58 82 91 99 99 100 100 99 98 97 97 98 98 98 99 97 98 97 97 97 95 97
24 25 26 26 29 31 34 40 41 54 67 87 99 99 100 100 99 99 98 99 97 98 98 98 100 99 96 96 96 94 94 96
24 26 26 28 29 32 38 41 50 60 74 95 99 99 100 100 100 99 99 96 93 94 98 100 100 97 97 96 96 98 95 95
26 28 28 28 30 33 40 40 47 53 86 100 98 100 97 100 99 100 95 91 97 100 100 100 100 96 96 96 97 97 96 94
27 28 28 28 30 35 37 38 45 59 98 99 98 98 100 99 99 99 93 96 97 95 96 100 98 98 97 96 96 96 95 94

GFSFLT1_850_rhum_345.txt.gz
RH
55 56 46 52 54 58 59 61 62 67 64 65 65 66 67 70 71 74 74 67 68 68 69 71 71 72 71 61 63 72 70 70
60 65 59 61 62 64 65 66 66 70 68 66 73 71 76 80 86 82 74 74 79 81 88 82 80 74 72 64 60 68 72 71
74 72 74 66 64 68 70 69 66 62 67 74 82 83 85 83 79 75 73 72 70 70 78 77 73 67 62 56 60 66 68 75
69 66 59 58 59 60 67 67 72 75 76 74 76 75 76 68 64 64 64 66 58 53 53 52 59 62 63 64 61 65 71 67
57 59 62 58 57 58 58 64 63 62 59 54 57 63 64 59 60 60 57 56 56 54 53 54 54 60 65 67 67 63 61 74
53 51 53 54 53 56 56 51 54 53 49 46 44 43 43 43 44 45 46 49 52 51 51 55 55 60 61 61 63 63 62 66
45 48 47 47 47 47 47 48 48 48 48 46 45 44 44 43 43 43 44 46 49 54 53 54 53 60 70 71 62 64 62 64
40 41 42 45 45 45 44 42 39 40 41 42 40 38 38 39 40 44 51 52 50 48 48 49 47 48 52 68 85 77 70 62
39 40 42 42 41 38 34 33 34 32 34 34 35 38 40 44 45 53 57 61 66 68 68 72 80 78 66 63 73 92 83 69
40 40 38 35 31 30 31 31 32 32 34 39 41 45 51 54 62 69 71 78 91 92 89 90 90 93 93 96 83 86 100 92
38 34 30 28 29 30 29 30 32 35 36 42 50 54 70 84 90 90 92 91 97 98 90 84 82 83 84 91 98 89 93 99
29 26 25 27 27 28 30 33 36 40 51 48 57 70 95 98 98 99 99 98 96 89 89 89 88 91 92 93 83 96 98 98
23 24 26 27 28 31 34 37 43 50 46 61 68 94 98 99 98 97 93 91 96 99 99 96 96 94 92 92 94 100 98 99
23 26 27 28 30 32 34 41 49 44 67 75 90 95 91 90 94 87 85 91 92 96 90 93 98 99 99 94 92 97 96 97
25 27 28 28 31 33 36 46 44 60 90 92 88 90 86 94 93 93 96 96 98 91 98 99 98 98 100 100 97 95 90 88
26 28 28 28 31 34 43 42 50 97 98 93 93 87 91 90 91 92 95 96 94 94 94 95 99 100 96 100 99 93 89 90
26 26 26 30 32 34 41 42 65 92 98 94 93 94 94 94 86 89 98 94 91 91 99 99 100 100 97 96 100 94 95 95
24 26 27 28 32 37 41 49 57 94 99 100 99 98 97 92 91 94 97 95 89 91 96 95 96 98 97 98 98 95 93 96
24 25 26 29 32 37 42 47 83 96 99 99 97 100 95 85 98 96 96 95 91 92 93 94 96 98 96 97 96 95 97 93

GFSFLT1_850_rhum_348.txt.gz
RH
60 74 68 66 68 67 70 71 69 68 67 68 68 70 72 71 76 73 76 82 85 85 78 76 77 72 73 76 75 64 57 68
65 71 69 70 73 79 78 74 79 77 74 73 70 67 68 75 78 78 80 83 88 84 94 87 90 91 89 80 76 70 47 56
67 66 75 76 70 70 70 70 72 71 74 78 80 75 75 77 71 71 81 81 81 79 80 85 87 82 89 82 76 63 53 49
56 60 63 62 57 56 57 53 56 58 65 63 63 71 69 85 84 73 66 65 59 67 61 57 56 54 56 67 71 60 58 56
50 54 55 54 54 59 60 60 56 52 51 54 56 49 46 45 44 44 44 46 53 53 51 51 51 54 57 64 64 64 64 60
42 45 51 55 53 51 48 48 48 47 47 45 43 47 47 46 45 44 44 44 44 46 49 50 48 49 56 64 66 66 69 65
44 49 44 44 45 45 44 44 41 36 34 34 35 36 41 39 38 39 39 37 39 44 52 53 55 54 52 54 59 74 75 68
40 40 42 43 41 38 35 32 32 32 32 33 35 36 37 40 42 45 50 51 50 53 55 55 57 64 63 56 59 67 72 76
40 40 41 36 31 30 30 31 30 30 32 34 38 41 45 50 54 58 60 63 64 65 65 66 68 67 64 69 71 65 68 85
41 37 29 27 28 28 28 29 30 33 36 40 47 50 52 63 73 83 89 89 88 86 86 83 83 85 83 80 83 80 73 76
31 25 25 27 27 28 30 33 35 40 48 51 50 62 73 87 97 97 99 99 96 98 100 96 90 88 87 85 83 80 82 88
24 26 27 28 28 30 32 35 40 51 49 58 75 85 94 94 93 96 96 95 94 99 95 90 87 87 89 92 85 84 90 98
25 27 28 27 30 32 35 37 50 49 70 97 92 86 85 85 85 89 85 86 92 96 91 96 99 98 95 98 94 89 99 100
26 25 28 29 31 33 34 46 47 57 90 93 88 83 81 90 97 96 95 96 95 98 94 100 95 97 92 98 98 96 98 99
26 25 30 30 30 32 41 44 53 66 96 94 91 92 98 94 93 93 97 95 90 94 94 97 98 99 98 95 99 100 98 99
25 27 29 29 31 34 45 51 52 92 97 99 99 100 97 87 91 96 94 93 89 91 97 100 99 96 99 100 98 98 100 96
26 26 28 30 32 40 48 57 75 99 99 100 100 100 93 85 99 95 85 88 85 89 97 98 99 100 99 98 98 98 100 98
26 27 29 31 35 47 56 74 94 98 100 100 100 98 89 99 95 88 84 90 90 100 99 100 99 98 98 98 98 98 100 98
26 28 30 32 35 52 59 92 94 98 100 100 99 100 94 92 98 89 90 92 95 100 98 96 97 97 97 98 98 96 100 95